Regional Weather Roundup
Issued by NWS Kansas City/Pleasant Hill, MO

Home | Current Version | Previous Version | Text Only | Print | Product List | Glossary On
Versions: 1 2 3 4 5 6 7 8 9 10 11 12 13 14 15 16 17 18 19 20 21 22 23 24 25 26 27 28 29 30 31 32 33 34 35 36 37 38 39 40 41 42 43 44 45 46 47 48 49 50
626
ASUS43 KEAX 231310
RWREAX

WEATHER ROUNDUP FOR EASTERN KANSAS AND NORTHWEST MISSOURI
NATIONAL WEATHER SERVICE KANSAS CITY/PLEASANT HILL MO
700 AM CST THU NOV 23 2017

KSZ040-057-103>105-MOZ028-029-037-043-231400-
...KANSAS CITY METROPOLITAN AREA...

CITY           SKY/WX    TMP DP  RH WIND       PRES   REMARKS
K.C. INTL      PTCLDY    34  22  61 SW10      30.04F WCI  26
K.C. DOWNTOWN  CLEAR     38  22  52 SW8       30.06S WCI  32
LEES SUMMIT    CLEAR     35  22  58 SW13      30.06F WCI  26
OLATHE - IXD   CLEAR     34  22  61 SW12      30.07S WCI  25
OLATHE - OJC   CLEAR     33  22  63 SW8       30.06S WCI  26
LAWRENCE       CLEAR     29  23  78 CALM      30.07S

$$

MOZ001>008-011>017-020>025-030>033-038>040-044>046-053-054-231400-
...NORTHERN AND CENTRAL MISSOURI...

CITY           SKY/WX    TMP DP  RH WIND       PRES   REMARKS
ST. JOSEPH     CLEAR     30  23  75 SW5       30.05R WCI  25
MOSBY          SUNNY     32  23  69 CALM      30.05S
WARRENSBURG    PTCLDY    32  23  69 S7        30.07F WCI  26
WHITEMAN AFB   CLEAR     36  22  56 SW12      30.03F WCI  28
CLINTON        CLEAR     32  23  69 MISG      30.10S
SEDALIA        CLEAR     37  25  61 SW17      30.07F WCI  27
WARSAW         NOT AVBL
CHILLICOTHE      N/A     31  22  69 CALM      30.05R
KIRKSVILLE     CLEAR     32  22  66 SW9       30.02F WCI  24

$$

MOZ041-047>049-056>058-063>065-088>090-097-231400-
...EASTERN AND SOUTHERN MISSOURI...

CITY           SKY/WX    TMP DP  RH WIND       PRES   REMARKS
ST. LOUIS INTL PTCLDY    32  21  64 SE3       30.12S
SPIRIT OF STL  CLEAR     26  22  84 CALM      30.11F
COLUMBIA       CLEAR     30  20  66 S5        30.08S WCI  25
JEFFERSON CITY CLEAR     31  18  58 E5        30.10F WCI  26
ROLLA          CLEAR     32  17  54 SW12      30.10S WCI  23
OSAGE BEACH    CLEAR     28  20  71 S5        30.11S WCI  23
SPRINGFIELD    CLEAR     31  26  82 S8        30.11F WCI  23
BRANSON        CLEAR     34  19  55 CALM      30.13F
JOPLIN         CLEAR     32  24  72 S7        30.13S WCI  26
WEST PLAINS    CLOUDY    29  19  66 S3        30.14S

$$

IAZ060-094-KSZ022-034>040-054-083-096-NEZ052-066-093-231400-
...KANSAS...SOUTHEAST NEBRASKA AND IOWA...

CITY           SKY/WX    TMP DP  RH WIND       PRES   REMARKS
TOPEKA         CLEAR     33  23  66 SW3       30.06F
MANHATTAN      CLEAR     32  23  69 SW5       30.07S WCI  27
EMPORIA        CLEAR     31  22  69 SW5       30.07S WCI  26
CHANUTE        CLEAR     34  23  64 S9        30.11S WCI  27
WICHITA        PTCLDY    32  24  72 CALM      30.08R
OMAHA          CLOUDY    29  21  72 SE3       30.01R
LINCOLN        CLEAR     34  28  79 CALM      30.05R
FALLS CITY     CLOUDY    33  23  66 W3        30.02S
LAMONI         CLOUDY    29  21  72 SW7       29.99R WCI  22
DES MOINES     CLOUDY    30  21  69 W6        29.97R WCI  24

$$





USA.gov is the U.S. government's official web portal to all federal, state and local government web resources and services.